Location: Hope
(40.9110°N, 74.9680°W)
Time: 06:31:38
(UTC-04:00)

Tianhe-1 - Visible Passes

Search period start: 19 June 2021 00:00
Search period end: 29 June 2021 00:00
Orbit: 375 x 386 km, 41.5° (Epoch: 18 June)

Date Brightness Start Highest point End Pass type
(mag) Time Alt. Az. Time Alt. Az. Time Alt. Az.
19 Jun 2.5 04:24:13 14° SSW 04:26:11 25° SSE 04:28:52 10° E visible
20 Jun 3.3 03:25:56 15° SE 03:25:56 15° SE 03:27:21 10° ESE visible
21 Jun 1.7 03:59:43 27° SSW 04:00:51 39° SSE 04:03:50 10° E visible
22 Jun 3.2 03:01:21 18° ESE 03:01:21 18° ESE 03:02:37 10° E visible
22 Jun 1.0 04:33:28 11° WSW 04:36:30 82° SSE 04:39:39 10° E visible
23 Jun 1.1 03:35:04 51° SSW 03:35:31 58° SSE 03:38:38 10° E visible
24 Jun 3.5 02:36:41 16° E 02:36:41 16° E 02:37:31 10° E visible
24 Jun 1.0 04:08:47 16° W 04:11:12 83° N 04:14:22 10° E visible
25 Jun 1.1 03:10:25 71° ESE 03:10:25 71° ESE 03:13:19 10° E visible
25 Jun 1.1 04:43:48 10° W 04:46:57 81° N 04:50:06 10° E visible
26 Jun 4.0 02:12:04 11° E 02:12:04 11° E 02:12:14 10° E visible
26 Jun 1.1 03:44:11 25° W 03:45:52 78° N 03:49:01 10° E visible
27 Jun 2.3 02:45:55 36° E 02:45:55 36° E 02:47:56 10° E visible
27 Jun 1.0 04:18:26 10° W 04:21:35 85° S 04:24:44 10° ESE visible
28 Jun 1.0 03:19:54 55° WNW 03:20:30 81° N 03:23:39 10° E visible
28 Jun 1.5 04:54:10 10° W 04:57:10 43° SSW 05:00:10 10° SE visible
